CDT,Max TemperatureF,Mean TemperatureF,Min TemperatureF,Max Dew PointF,MeanDew PointF,Min DewpointF,Max Humidity, Mean Humidity, Min Humidity, Max Sea Level PressureIn, Mean Sea Level PressureIn, Min Sea Level PressureIn, Max VisibilityMiles, Mean VisibilityMiles, Min VisibilityMiles, Max Wind SpeedMPH, Mean Wind SpeedMPH, Max Gust SpeedMPH,PrecipitationIn, CloudCover, Events, WindDirDegrees
2012-9-1,96,78,59,65,57,50,95,57,21,30.10,30.03,29.96,10,9,5,16,6,20,0.00,0,,141
2012-9-2,93,80,66,64,59,50,82,55,23,29.99,29.95,29.90,10,10,10,14,8,18,0.00,0,,171
2012-9-3,90,77,65,68,62,54,86,63,39,29.99,29.93,29.88,10,10,3,13,5,9,0.00,0,,66
2012-9-4,101,78,55,63,52,36,94,54,11,29.95,29.87,29.78,10,10,5,15,3,21,0.00,0,,243
2012-9-5,84,69,55,58,47,37,87,50,20,30.06,29.98,29.85,10,10,4,17,8,22,0.00,0,,3
2012-9-6,97,74,52,55,45,32,81,41,10,30.03,29.92,29.81,10,10,10,23,8,28,0.00,0,,156
2012-9-7,73,60,48,51,47,42,86,57,34,30.24,30.11,29.95,10,10,10,20,9,29,0.05,2,Rain,355
2012-9-8,85,63,41,47,40,31,90,54,14,30.27,30.20,30.09,10,10,2,17,7,24,0.00,0,,303
2012-9-9,81,60,41,43,40,35,88,49,22,30.30,30.20,30.10,10,10,7,13,5,17,0.00,0,,143
2012-9-10,94,74,53,44,40,35,67,35,12,30.10,29.96,29.85,10,10,7,28,14,37,0.00,0,,174
2012-9-11,94,78,62,48,43,38,49,29,19,29.87,29.83,29.76,10,10,7,22,14,33,0.00,0,,173
2012-9-12,69,63,51,53,44,32,94,57,32,30.34,30.13,29.84,10,10,5,30,14,39,0.28,2,Rain,29
2012-9-13,71,58,45,50,43,33,97,67,25,30.48,30.41,30.35,10,9,5,9,5,,0.03,0,,263
2012-9-14,81,62,44,46,41,38,88,49,22,30.41,30.34,30.25,10,10,5,13,5,17,0.00,0,,219
2012-9-15,81,64,47,45,38,32,82,42,17,30.27,30.18,30.07,10,10,10,16,7,21,0.00,0,,176
2012-9-16,81,64,46,55,50,43,97,66,27,30.10,29.99,29.88,10,9,0,18,8,24,0.00,1,Fog,163
2012-9-17,69,56,43,48,41,33,82,57,26,30.14,30.06,29.91,10,10,10,26,11,34,0.00,1,Rain,356
2012-9-18,81,58,35,41,37,33,92,54,19,30.15,30.03,29.90,10,10,10,10,4,,0.00,1,,238
2012-9-19,86,63,41,44,37,32,88,48,17,30.10,29.96,29.90,10,10,5,23,5,30,0.00,0,,333
2012-9-20,80,58,38,43,36,32,85,52,18,30.11,30.03,29.92,10,10,7,14,6,20,0.00,0,,248
2012-9-21,80,63,47,44,38,34,70,45,19,30.06,30.00,29.96,10,10,7,22,8,28,0.00,0,,311
2012-9-22,70,52,36,40,34,30,87,50,25,30.32,30.24,30.07,10,10,5,8,6,,0.00,0,,40
2012-9-23,72,54,36,33,30,24,82,45,19,30.30,30.22,30.15,10,10,10,21,7,24,0.00,0,,139
2012-9-24,71,56,40,51,42,33,86,59,43,30.15,30.00,29.87,10,10,5,9,5,,0.00,0,,136
2012-9-25,78,60,43,52,46,42,94,66,32,29.93,29.91,29.89,10,9,5,9,4,,0.00,1,Rain,23
2012-9-26,79,62,45,49,41,36,87,53,21,30.19,30.07,29.95,10,10,4,13,5,17,0.00,1,,72
2012-9-27,77,58,39,53,41,35,92,62,23,30.23,30.18,30.13,10,9,5,8,2,,0.00,0,,94
2012-9-28,78,60,43,46,37,30,86,51,17,30.21,30.16,30.11,10,8,2,9,2,,0.00,0,,165
2012-9-29,77,58,39,52,40,36,90,57,24,30.19,30.13,30.05,10,7,1,13,3,17,0.00,0,,159
2012-9-30,81,62,43,58,49,40,91,63,38,30.08,30.00,29.91,10,10,7,12,4,,0.00,1,Thunderstorm,169